Theta_e
334 334 333 333 331 330 330 327 326 327 326 325 324 324 324 325 327 329 329 331 336 338 336 335 335 334 333 332 330 329 328 327 326 326 326 326 328 328 328 328 328 327 327
334 332 332 331 329 328 329 326 325 324 323 322 322 322 320 324 326 327 328 329 334 337 338 337 336 335 334 333 332 330 329 328 327 326 325 324 325 326 325 326 325 325 325
334 332 331 329 329 329 327 325 323 323 321 323 320 320 319 320 321 326 327 328 331 332 337 338 338 338 337 336 335 334 333 331 330 329 327 325 324 325 325 325 324 324 324
334 332 331 330 330 329 324 321 320 319 320 323 324 321 322 321 320 319 326 327 328 331 333 338 340 341 339 340 340 339 337 335 334 332 331 329 327 326 326 324 324 323 322
333 332 331 331 329 327 322 321 319 320 322 324 325 324 324 323 323 324 320 322 326 327 327 330 332 334 337 338 337 336 336 334 335 335 334 333 331 329 327 326 325 324 323
333 331 330 331 327 323 320 319 319 321 325 325 327 324 323 323 323 323 322 323 321 323 324 326 326 327 329 334 334 334 335 334 333 333 332 332 332 332 331 328 327 326 326
334 331 330 328 325 322 322 321 322 324 325 325 323 322 321 323 322 322 323 323 324 324 325 327 327 325 325 330 332 333 334 333 331 331 330 330 330 330 331 331 330 329 328
329 330 327 325 324 324 324 324 325 324 325 325 321 318 316 319 320 321 321 321 320 322 322 321 323 325 323 320 322 324 326 328 329 330 330 331 329 328 329 329 329 330 330
328 326 325 325 326 326 326 325 326 326 323 325 323 320 313 311 316 319 318 318 317 317 317 317 319 318 318 318 319 317 319 322 326 328 329 330 330 330 328 328 328 328 329
326 326 326 326 327 328 327 327 329 327 326 323 325 325 323 319 312 312 315 315 316 316 314 314 314 315 314 313 314 315 317 319 324 327 329 330 330 330 329 329 329 329 328
326 328 327 327 329 330 329 329 327 326 325 323 323 322 320 319 319 313 308 311 314 314 315 314 313 311 311 310 309 312 316 319 322 325 328 330 329 329 328 327 327 326 325
326 330 330 330 330 330 329 328 326 326 325 325 325 324 320 317 316 315 315 314 311 313 315 313 311 310 309 309 312 313 314 316 318 321 324 327 328 326 326 325 324 323 323
326 329 330 330 330 330 329 327 326 325 325 324 324 324 324 323 322 319 318 314 310 312 312 311 310 310 311 308 308 310 312 315 317 320 324 326 326 324 321 320 320 321 321
328 329 330 329 328 327 326 325 325 325 324 324 324 323 323 322 321 321 318 314 307 309 308 308 307 308 308 308 310 311 308 314 316 319 323 324 320 318 316 316 317 317 317
328 327 327 327 326 326 325 325 324 324 324 324 324 322 320 319 320 319 316 316 314 303 301 304 304 307 308 307 308 309 311 313 314 314 315 315 314 314 313 313 313 314 315
327 326 326 326 325 325 325 324 323 324 323 322 321 320 317 317 316 315 312 311 312 308 302 304 304 304 305 306 308 308 309 309 311 313 312 311 311 310 310 311 311 312 314
325 326 326 324 325 324 325 323 323 322 320 318 319 319 316 313 310 309 309 308 306 306 301 301 302 302 301 302 306 306 306 305 306 310 310 309 309 309 309 310 310 311 313
326 326 326 325 324 324 324 323 320 320 318 317 315 315 312 309 306 306 306 305 304 305 302 299 299 300 300 302 298 301 301 302 303 305 308 308 308 309 308 307 308 308 309
323 323 323 323 323 322 322 320 320 318 316 315 313 311 308 306 304 303 302 302 302 303 301 300 297 299 300 299 297 297 297 297 299 300 304 307 308 308 306 306 306 305 306
322 322 322 320 321 321 320 318 317 314 313 310 310 307 305 305 304 303 302 301 300 298 298 297 298 299 296 295 295 294 295 294 295 297 300 302 306 307 305 304 303 302 303
317 318 317 317 318 318 315 313 312 309 306 303 304 301 300 300 301 302 300 297 297 296 295 294 295 294 291 291 293 295 292 291 292 293 293 295 296 297 299 302 300 300 301
306 307 306 306 304 305 305 307 306 305 303 302 298 297 297 298 300 302 301 300 298 295 292 291 290 291 293 294 294 292 290 288 289 291 290 291 291 292 294 296 299 299 298
304 303 302 302 302 304 306 306 304 302 299 298 296 294 295 297 297 297 300 299 298 299 297 292 290 291 291 294 292 289 289 288 289 290 289 288 288 289 291 293 298 297 297
302 302 301 300 299 301 304 303 301 298 298 297 297 297 296 294 295 295 294 292 292 293 292 292 290 289 288 289 288 288 290 289 288 287 289 287 286 287 288 289 296 297 297
298 298 300 300 299 298 301 301 298 297 296 295 296 296 295 294 298 298 292 289 289 290 295 295 293 293 293 294 294 291 287 286 286 286 286 286 285 285 286 287 288 295 296
297 298 298 299 298 296 299 300 296 294 292 292 293 294 297 294 299 297 290 289 287 286 287 286 285 287 288 287 291 288 287 286 286 285 286 285 284 284 284 285 286 288 289
Wind_Speed
8 8 8 6 5 4 4 5 4 4 5 4 4 5 6 6 6 4 3 8 8 7 6 6 5 5 4 4 4 4 4 4 4 3 3 3 5 7 9 10 9 9 9
9 9 8 7 6 5 5 5 5 5 4 4 5 5 5 6 6 6 4 4 9 8 7 7 7 6 5 4 4 4 3 3 3 2 2 2 3 3 4 3 3 5 6
12 12 9 8 7 7 7 5 4 4 3 2 4 4 3 4 6 6 5 4 5 8 9 9 8 8 7 7 7 7 7 6 6 5 4 4 4 6 6 4 2 3 4
13 12 10 8 7 6 5 5 5 3 3 4 3 3 3 3 2 6 5 5 4 4 6 9 9 10 10 10 10 10 9 9 8 8 8 9 8 8 6 5 4 2 2
15 12 10 8 7 7 5 5 2 4 3 2 3 3 3 3 3 2 5 5 6 5 4 6 9 9 8 7 8 6 4 2 5 9 10 10 9 10 9 7 6 5 4
16 13 11 8 8 7 5 4 4 2 3 4 3 4 2 3 2 2 2 2 3 5 3 3 3 4 5 6 4 4 2 5 5 6 4 2 8 11 11 10 10 9 8
16 14 10 11 9 8 6 6 3 4 2 3 3 2 1 1 1 2 3 3 5 4 4 4 2 1 0 2 2 3 6 5 5 5 4 5 4 5 8 10 12 13 12
14 14 13 11 10 7 7 6 5 3 3 3 3 2 2 2 3 2 3 3 2 2 3 4 5 4 4 3 5 7 6 5 5 5 6 5 3 2 4 4 5 12 16
12 11 11 10 10 8 7 6 6 6 4 1 3 4 2 3 2 1 1 1 2 3 3 2 2 3 3 3 3 4 6 5 5 6 8 10 9 8 6 7 7 6 8
12 12 11 10 10 6 8 7 6 5 5 5 2 2 3 4 3 1 1 1 1 0 1 1 1 2 3 3 3 3 2 4 5 6 9 9 9 10 9 8 7 9 11
12 12 13 12 9 7 8 8 6 6 4 4 3 3 1 1 3 3 1 2 3 2 2 2 2 2 2 2 1 2 4 6 7 8 10 11 10 8 9 5 8 9 8
9 11 11 11 9 9 10 8 7 8 5 5 4 4 4 3 3 3 2 3 3 3 3 3 2 1 0 1 1 2 6 8 9 10 11 11 8 6 5 7 7 8 11
9 9 11 11 9 9 9 9 8 7 6 5 5 4 3 3 3 3 4 2 2 2 1 3 2 3 2 2 1 4 4 5 7 10 10 10 4 9 8 5 8 11 12
11 12 12 11 10 9 8 7 6 5 5 4 5 4 3 4 3 3 4 4 1 1 2 2 3 3 3 1 3 5 2 3 5 9 7 8 10 9 7 6 8 9 12
9 10 11 10 10 9 10 9 7 6 5 4 5 5 4 4 4 3 3 4 3 2 2 1 2 3 2 3 3 3 3 3 3 4 6 7 6 5 3 3 7 10 13
13 12 11 11 10 9 10 9 6 6 7 5 4 7 5 4 4 3 3 3 3 4 3 2 1 2 1 3 2 3 4 4 4 1 2 1 2 1 1 2 5 9 12
13 13 12 12 11 11 10 8 7 7 8 6 5 7 6 5 4 4 3 2 3 3 4 1 2 2 2 2 2 1 2 3 4 6 2 2 3 2 1 3 6 8 8
10 12 12 12 11 11 9 9 8 7 6 9 7 6 5 4 5 5 4 3 3 2 3 2 1 1 3 4 3 3 3 2 2 4 4 3 5 4 1 3 6 7 9
7 7 8 11 12 9 8 7 8 9 8 6 8 8 7 6 5 3 3 4 4 3 3 2 1 2 1 1 0 1 2 4 3 5 6 6 6 4 3 3 4 5 7
6 7 8 7 7 9 10 9 8 7 6 5 6 8 7 7 7 6 5 5 5 4 2 2 2 1 1 1 1 1 2 1 3 2 3 5 8 6 4 2 2 3 4
6 7 7 6 8 10 8 9 9 11 11 7 7 8 6 7 8 6 4 4 5 4 2 3 2 1 1 1 2 1 1 2 3 2 2 1 2 2 2 2 1 3 3
5 6 6 7 6 2 9 13 14 11 10 10 9 7 6 9 8 9 9 8 6 5 5 4 3 4 3 2 0 0 1 2 3 2 1 2 2 2 2 2 2 1 2
5 5 6 5 4 3 12 13 14 8 8 8 9 8 6 4 7 7 9 8 6 6 4 5 5 4 3 2 3 2 3 2 3 1 2 2 1 3 3 3 6 5 4
4 4 6 5 5 1 9 12 13 8 7 7 9 8 8 7 6 7 6 5 5 4 5 4 4 3 2 2 3 3 3 3 2 3 3 3 2 3 2 3 8 8 7
4 4 4 4 4 1 7 10 7 6 7 6 6 6 7 7 10 11 6 6 4 2 5 6 6 4 2 3 5 2 1 1 2 2 3 2 2 2 2 3 4 9 9
4 3 4 4 4 3 3 7 4 3 5 4 4 4 8 7 12 11 6 5 4 3 4 2 2 1 1 2 1 1 2 2 2 1 3 3 3 2 3 2 1 2 3
Wind_Direction
151 145 145 147 144 150 162 172 178 194 223 211 207 149 128 143 142 146 155 157 156 156 153 151 152 148 146 140 135 130 129 117 102 91 84 74 52 51 46 41 36 39 35
157 152 148 153 162 167 179 175 188 204 170 149 135 129 125 136 152 150 156 171 172 174 178 183 187 186 178 180 178 177 178 161 156 156 141 101 82 77 97 128 113 80 58
162 154 151 168 179 181 181 173 192 174 137 119 140 148 158 161 138 159 166 177 187 190 197 208 209 211 209 211 206 205 204 202 203 200 200 187 188 200 194 185 130 94 77
161 159 157 177 180 182 169 169 165 142 142 139 134 154 132 128 128 152 180 177 187 193 213 222 233 230 227 229 237 232 216 213 212 213 213 214 216 226 226 209 192 160 111
159 156 163 180 167 167 155 153 147 131 148 137 124 125 116 121 160 119 163 182 198 196 204 221 232 248 252 252 265 279 295 192 217 228 231 231 227 235 231 234 222 216 198
164 161 169 177 166 147 147 149 143 134 147 161 144 121 151 170 172 143 107 99 165 191 204 233 224 238 257 258 290 309 306 110 77 65 64 304 250 245 241 236 236 225 218
166 163 171 170 154 156 159 156 133 141 85 132 105 44 325 328 136 95 98 82 62 67 76 61 55 199 24 125 60 38 35 63 63 47 21 29 348 330 261 248 245 235 225
156 165 165 158 154 148 153 155 146 139 130 159 133 123 135 13 30 73 82 91 90 56 58 38 36 52 56 57 53 39 20 21 24 359 312 307 354 343 332 316 296 248 235
153 150 153 154 157 159 167 160 155 149 139 101 163 150 121 184 142 313 47 53 56 45 48 46 48 79 82 77 64 51 31 25 355 338 321 328 332 317 317 312 311 319 260
151 147 153 154 165 160 162 163 162 161 137 151 137 105 95 137 155 198 339 356 36 8 79 38 5 57 88 85 76 65 10 358 339 334 316 309 307 317 317 332 7 21 11
156 156 164 166 166 167 161 154 150 149 138 137 145 135 97 75 119 133 150 338 332 248 172 201 206 187 145 129 98 301 342 344 338 329 315 306 303 318 338 24 26 13 1
164 160 161 166 158 157 154 151 141 150 148 146 150 147 153 165 181 163 132 205 211 268 198 188 187 175 99 119 103 9 358 346 339 325 310 301 306 311 65 34 12 353 344
167 163 153 158 158 156 150 148 148 151 150 155 158 163 149 172 187 155 128 166 161 281 292 55 44 107 105 67 63 73 14 339 329 318 295 279 281 109 81 38 4 355 336
170 162 159 159 152 149 143 139 139 147 155 161 167 158 143 172 150 130 145 137 130 295 1 85 26 60 73 90 86 69 347 321 336 6 12 115 100 91 71 23 358 339 329
155 155 154 152 152 151 147 149 154 155 150 153 174 151 160 128 109 105 107 118 151 169 253 11 115 50 80 50 27 10 343 354 331 30 51 71 67 56 59 2 329 326 326
149 156 156 159 158 160 154 158 156 167 161 159 154 159 127 99 93 112 137 138 135 160 202 171 67 151 206 132 64 23 351 326 333 352 47 94 72 224 306 294 323 330 336
156 169 164 164 166 165 163 157 158 154 153 143 154 134 113 124 138 121 122 123 146 152 170 216 146 210 186 63 36 22 12 351 336 338 298 291 262 238 186 25 11 356 349
152 165 170 171 171 172 167 161 159 165 155 163 144 100 127 131 143 150 145 148 147 118 120 156 199 74 65 42 1 351 342 314 252 334 298 268 253 236 113 37 31 24 16
151 146 174 177 172 177 169 171 171 173 149 167 143 144 152 152 141 135 142 154 153 132 126 117 289 48 64 98 306 282 310 301 318 303 304 270 248 203 169 102 57 28 22
181 192 181 176 178 185 180 173 171 134 138 140 147 131 146 159 159 163 160 171 150 133 131 123 203 244 294 333 341 280 319 282 282 301 314 323 267 192 180 170 108 55 32
163 171 162 172 190 194 183 164 145 156 133 135 128 118 133 123 135 150 153 151 138 128 134 179 170 139 242 274 248 64 286 285 277 255 288 286 305 310 293 154 138 78 65
91 116 121 140 137 149 139 146 139 140 147 146 131 117 121 127 135 132 118 128 147 161 173 174 182 198 213 212 178 210 243 288 297 83 268 279 192 238 262 261 231 249 209
95 86 82 85 84 127 130 129 130 144 140 135 135 135 138 157 155 146 142 147 150 156 156 168 187 189 201 179 136 181 217 234 249 235 164 266 203 246 237 243 217 236 247
94 107 107 105 94 310 125 125 125 126 128 143 147 157 160 161 163 157 149 156 174 178 175 161 176 178 188 244 213 199 221 257 289 264 186 232 173 253 243 237 220 228 237
57 45 73 106 120 93 111 121 116 133 131 135 142 156 158 152 168 160 144 159 172 174 164 153 150 162 235 272 271 178 223 188 274 266 210 156 224 244 253 230 205 232 238
83 87 96 88 111 105 115 127 129 119 128 138 142 146 161 159 168 165 149 157 161 202 160 122 46 103 149 267 309 215 182 196 194 297 240 184 171 188 236 223 328 257 254